User: anonymous   Login
Location: Unspecified
(0.0000°N, 0.0000°E)
Time: 21:22:29
(UTC+00:00)
Language:

STARS - Orbit

View from above orbital plane
View from above orbital plane
View from above satellite
View from above satellite

Ground track
Ground track

The orbit data is extracted from the following two-line orbital elements,

1 33498U 09002G   17323.10591715  .00000337  00000-0  53625-4 0  9991
2 33498  98.3286 142.4059 0010425 209.3706 265.2992 14.78692959474795
Epoch (UTC): 19 November 2017 02:32:31
Eccentricity: 0.0010425
inclination: 98.3286°
perigee height: 626 km
apogee height: 641 km
right ascension of ascending node: 142.4059°
argument of perigee: 209.3706°
revolutions per day: 14.78692959
mean anomaly at epoch: 265.2992°
orbit number at epoch: 47479

The dashed part of the orbit path shows where the satellite is in the earth's shadow,  

DLR